QPF
0.02 0.04 0.08 0.12 0.13 0.14 0.15 0.12 0.13 0.21 0.10 0.10 0.15 0.08 0.02 0.00 0.00 0.00 0.00 0.00 0.00 0.00 0.00 0.00 0.00 0.00 0.00 0.00 0.00 0.00 0.00 0.00 0.00 0.00 0.00 0.00 0.00 0.00 0.00 0.00 0.00 0.00 0.00 0.01
0.05 0.07 0.10 0.11 0.09 0.07 0.03 0.07 0.20 0.37 0.21 0.15 0.10 0.02 0.00 0.01 0.00 0.00 0.00 0.00 0.00 0.00 0.00 0.00 0.00 0.00 0.00 0.00 0.00 0.00 0.00 0.00 0.00 0.00 0.00 0.00 0.00 0.00 0.00 0.00 0.00 0.00 0.01 0.00
0.08 0.09 0.10 0.10 0.07 0.04 0.02 0.10 0.29 0.47 0.35 0.09 0.02 0.01 0.02 0.02 0.00 0.00 0.00 0.00 0.00 0.00 0.00 0.00 0.00 0.00 0.00 0.00 0.00 0.00 0.00 0.00 0.00 0.00 0.00 0.00 0.00 0.00 0.00 0.00 0.00 0.01 0.00 0.00
0.11 0.11 0.10 0.10 0.10 0.08 0.05 0.10 0.17 0.18 0.20 0.08 0.01 0.01 0.04 0.03 0.03 0.01 0.00 0.00 0.00 0.00 0.00 0.00 0.00 0.00 0.00 0.00 0.00 0.00 0.00 0.00 0.00 0.00 0.00 0.00 0.00 0.00 0.00 0.00 0.00 0.00 0.00 0.00
0.16 0.16 0.16 0.15 0.15 0.13 0.09 0.11 0.11 0.10 0.07 0.06 0.07 0.05 0.05 0.04 0.03 0.02 0.01 0.00 0.00 0.00 0.00 0.00 0.00 0.00 0.00 0.00 0.00 0.00 0.00 0.00 0.00 0.00 0.00 0.00 0.00 0.00 0.00 0.00 0.00 0.00 0.00 0.00
0.21 0.26 0.31 0.30 0.26 0.18 0.16 0.12 0.08 0.08 0.17 0.16 0.14 0.06 0.02 0.02 0.02 0.01 0.00 0.00 0.00 0.00 0.00 0.00 0.00 0.00 0.00 0.00 0.00 0.00 0.00 0.01 0.03 0.04 0.00 0.03 0.04 0.00 0.00 0.00 0.00 0.00 0.00 0.00
0.32 0.32 0.31 0.30 0.28 0.20 0.11 0.08 0.07 0.09 0.13 0.09 0.06 0.02 0.01 0.01 0.01 0.00 0.00 0.00 0.00 0.00 0.00 0.00 0.00 0.00 0.00 0.00 0.00 0.00 0.00 0.01 0.03 0.03 0.02 0.05 0.00 0.00 0.00 0.00 0.00 0.00 0.00 0.00
0.47 0.44 0.40 0.37 0.34 0.19 0.08 0.06 0.05 0.05 0.06 0.03 0.02 0.01 0.01 0.01 0.00 0.00 0.00 0.00 0.00 0.00 0.00 0.00 0.00 0.00 0.00 0.00 0.00 0.00 0.00 0.00 0.06 0.09 0.05 0.02 0.00 0.00 0.00 0.00 0.00 0.00 0.00 0.01
0.36 0.35 0.35 0.31 0.24 0.11 0.06 0.04 0.01 0.01 0.01 0.01 0.00 0.00 0.00 0.00 0.00 0.00 0.00 0.00 0.00 0.00 0.00 0.02 0.02 0.00 0.00 0.00 0.00 0.00 0.00 0.00 0.03 0.04 0.02 0.00 0.00 0.00 0.01 0.03 0.02 0.00 0.00 0.01
0.24 0.21 0.19 0.16 0.12 0.06 0.04 0.04 0.01 0.00 0.00 0.00 0.00 0.00 0.00 0.00 0.00 0.00 0.00 0.00 0.00 0.00 0.02 0.03 0.01 0.00 0.00 0.00 0.00 0.00 0.00 0.00 0.01 0.00 0.02 0.01 0.01 0.01 0.04 0.09 0.04 0.00 0.00 0.00
0.09 0.09 0.08 0.06 0.04 0.03 0.02 0.02 0.00 0.00 0.00 0.00 0.00 0.00 0.00 0.00 0.00 0.00 0.00 0.00 0.00 0.00 0.00 0.01 0.02 0.03 0.02 0.02 0.00 0.00 0.00 0.00 0.00 0.00 0.01 0.01 0.03 0.03 0.05 0.03 0.01 0.01 0.00 0.00
0.03 0.02 0.01 0.00 0.00 0.00 0.00 0.00 0.00 0.00 0.00 0.00 0.00 0.00 0.00 0.00 0.00 0.00 0.00 0.00 0.00 0.00 0.00 0.00 0.00 0.02 0.01 0.05 0.01 0.00 0.01 0.01 0.02 0.06 0.03 0.05 0.08 0.07 0.03 0.01 0.01 0.00 0.00 0.00
0.00 0.00 0.00 0.00 0.00 0.00 0.00 0.00 0.00 0.00 0.00 0.00 0.00 0.00 0.00 0.00 0.00 0.00 0.00 0.00 0.00 0.00 0.00 0.00 0.01 0.01 0.00 0.00 0.00 0.00 0.00 0.00 0.00 0.00 0.00 0.00 0.01 0.01 0.01 0.02 0.02 0.01 0.01 0.00
0.00 0.00 0.00 0.00 0.00 0.00 0.00 0.00 0.00 0.00 0.00 0.00 0.00 0.00 0.00 0.00 0.00 0.00 0.00 0.00 0.00 0.00 0.00 0.00 0.00 0.00 0.00 0.00 0.00 0.00 0.00 0.00 0.00 0.00 0.00 0.00 0.00 0.00 0.00 0.01 0.00 0.00 0.00 0.00
0.00 0.00 0.00 0.00 0.00 0.00 0.00 0.00 0.00 0.00 0.00 0.00 0.00 0.00 0.00 0.00 0.00 0.00 0.00 0.00 0.00 0.00 0.00 0.00 0.00 0.00 0.00 0.00 0.00 0.00 0.00 0.00 0.00 0.00 0.00 0.00 0.00 0.00 0.00 0.00 0.00 0.00 0.00 0.00
0.00 0.00 0.00 0.00 0.00 0.00 0.00 0.00 0.00 0.00 0.00 0.00 0.00 0.00 0.00 0.00 0.00 0.00 0.00 0.00 0.00 0.00 0.00 0.00 0.00 0.00 0.00 0.00 0.00 0.00 0.00 0.00 0.00 0.00 0.00 0.00 0.00 0.00 0.00 0.00 0.00 0.00 0.00 0.00
0.00 0.00 0.00 0.00 0.00 0.00 0.00 0.00 0.00 0.00 0.00 0.00 0.00 0.00 0.00 0.00 0.00 0.00 0.00 0.00 0.00 0.00 0.00 0.00 0.00 0.00 0.01 0.01 0.01 0.00 0.00 0.00 0.00 0.00 0.00 0.00 0.00 0.00 0.00 0.00 0.00 0.00 0.00 0.00
0.00 0.00 0.00 0.00 0.00 0.00 0.00 0.00 0.00 0.00 0.00 0.00 0.00 0.00 0.00 0.00 0.00 0.00 0.00 0.00 0.00 0.00 0.00 0.00 0.00 0.00 0.00 0.01 0.00 0.00 0.00 0.00 0.00 0.00 0.00 0.00 0.00 0.01 0.01 0.01 0.01 0.01 0.00 0.00
0.00 0.00 0.00 0.00 0.00 0.00 0.00 0.00 0.00 0.00 0.00 0.00 0.00 0.00 0.00 0.00 0.00 0.00 0.00 0.00 0.00 0.00 0.00 0.00 0.01 0.03 0.01 0.00 0.00 0.00 0.00 0.00 0.00 0.00 0.00 0.00 0.01 0.02 0.01 0.01 0.01 0.00 0.00 0.00
0.00 0.00 0.00 0.00 0.00 0.00 0.00 0.00 0.00 0.00 0.00 0.00 0.00 0.00 0.00 0.00 0.00 0.00 0.00 0.00 0.00 0.00 0.00 0.00 0.01 0.00 0.00 0.00 0.00 0.00 0.00 0.00 0.00 0.00 0.00 0.00 0.01 0.02 0.01 0.01 0.00 0.00 0.00 0.00
0.00 0.00 0.00 0.00 0.00 0.00 0.00 0.00 0.00 0.00 0.00 0.00 0.00 0.00 0.00 0.00 0.00 0.00 0.00 0.00 0.00 0.00 0.00 0.00 0.00 0.02 0.16 0.03 0.02 0.01 0.00 0.00 0.01 0.00 0.00 0.00 0.00 0.00 0.00 0.00 0.00 0.00 0.00 0.00
0.00 0.00 0.00 0.00 0.00 0.00 0.00 0.00 0.00 0.00 0.00 0.00 0.00 0.00 0.01 0.02 0.03 0.01 0.00 0.00 0.00 0.00 0.00 0.02 0.01 0.10 0.20 0.11 0.04 0.00 0.00 0.00 0.00 0.00 0.00 0.00 0.00 0.00 0.00 0.00 0.00 0.00 0.00 0.00
0.00 0.00 0.00 0.00 0.00 0.00 0.00 0.00 0.00 0.00 0.00 0.00 0.00 0.00 0.01 0.00 0.07 0.08 0.00 0.00 0.00 0.00 0.00 0.01 0.01 0.02 0.01 0.01 0.00 0.01 0.00 0.00 0.00 0.00 0.00 0.00 0.00 0.00 0.00 0.00 0.00 0.00 0.01 0.02
0.00 0.00 0.00 0.00 0.00 0.00 0.00 0.00 0.00 0.00 0.00 0.03 0.07 0.08 0.03 0.02 0.07 0.11 0.02 0.00 0.00 0.01 0.01 0.03 0.06 0.09 0.09 0.03 0.04 0.03 0.00 0.00 0.00 0.00 0.00 0.00 0.00 0.00 0.00 0.00 0.00 0.01 0.03 0.04
0.00 0.00 0.00 0.00 0.00 0.00 0.00 0.00 0.00 0.00 0.02 0.12 0.17 0.13 0.04 0.01 0.02 0.08 0.02 0.00 0.01 0.02 0.04 0.09 0.09 0.09 0.05 0.02 0.00 0.00 0.00 0.00 0.00 0.00 0.00 0.00 0.00 0.00 0.00 0.00 0.00 0.01 0.02 0.01
0.00 0.00 0.00 0.00 0.00 0.00 0.00 0.00 0.00 0.00 0.01 0.03 0.05 0.04 0.09 0.02 0.00 0.01 0.00 0.01 0.01 0.04 0.07 0.07 0.03 0.00 0.00 0.00 0.00 0.00 0.00 0.00 0.00 0.00 0.00 0.00 0.00 0.00 0.01 0.01 0.01 0.01 0.00 0.00
0.00 0.00 0.00 0.00 0.00 0.00 0.00 0.00 0.00 0.00 0.02 0.01 0.01 0.03 0.10 0.13 0.09 0.10 0.08 0.05 0.08 0.12 0.09 0.02 0.00 0.00 0.00 0.00 0.00 0.00 0.00 0.00 0.00 0.00 0.00 0.00 0.01 0.01 0.02 0.02 0.02 0.02 0.02 0.02
MSLP
1005.00 1006.18 1006.82 1008.23 1009.73 1010.83 1012.26 1013.37 1014.31 1014.29 1014.72 1016.26 1016.44 1015.91 1015.71 1014.89 1014.58 1014.94 1014.46 1014.40 1014.05 1013.72 1013.71 1013.67 1013.57 1013.21 1013.01 1012.89 1013.15 1013.50 1013.71 1013.49 1012.93 1012.08 1011.46 1011.18 1011.32 1011.52 1012.11 1012.97 1012.99 1012.84 1012.55 1011.00
1004.08 1004.89 1006.01 1007.11 1008.58 1008.99 1011.19 1012.94 1013.94 1014.12 1013.82 1015.34 1015.70 1015.99 1015.37 1015.17 1015.01 1014.84 1014.85 1014.76 1014.39 1014.20 1014.17 1014.27 1013.72 1013.51 1013.09 1013.34 1013.72 1014.07 1014.19 1014.40 1014.07 1012.62 1012.52 1012.06 1011.98 1012.18 1012.56 1013.21 1013.40 1013.34 1013.32 1011.64
1002.73 1003.74 1004.77 1005.94 1007.24 1007.70 1008.33 1012.07 1014.06 1014.07 1014.44 1014.10 1014.64 1015.11 1015.07 1015.42 1015.16 1015.18 1015.28 1014.90 1014.79 1015.18 1014.89 1014.39 1013.94 1013.95 1013.78 1013.83 1014.04 1014.24 1014.51 1014.97 1015.41 1014.48 1013.89 1013.89 1013.24 1012.66 1012.99 1013.55 1013.47 1013.37 1012.87 1012.35
1001.41 1002.51 1003.84 1004.86 1006.16 1006.91 1007.08 1010.28 1011.60 1011.46 1012.70 1013.46 1013.79 1013.98 1014.95 1015.06 1015.23 1015.40 1015.30 1015.25 1015.08 1015.12 1015.37 1014.80 1014.37 1014.31 1014.21 1014.45 1014.45 1014.42 1014.71 1014.76 1015.35 1014.20 1013.88 1013.61 1013.02 1012.32 1013.09 1013.22 1012.66 1012.67 1011.98 1011.44
999.46 1001.17 1002.19 1004.12 1005.79 1006.27 1007.17 1009.09 1009.99 1010.94 1011.50 1012.48 1013.24 1013.70 1014.18 1014.87 1015.03 1015.26 1014.87 1014.97 1014.83 1015.35 1015.52 1015.35 1015.15 1015.00 1015.00 1014.78 1014.82 1014.92 1014.82 1014.60 1015.08 1013.93 1014.21 1013.60 1012.67 1012.25 1012.67 1012.30 1012.02 1011.34 1011.03 1010.30
998.84 1000.39 1001.92 1003.72 1005.13 1005.70 1007.27 1008.44 1008.90 1009.22 1011.61 1011.98 1012.67 1012.98 1013.72 1014.24 1014.90 1014.73 1014.66 1014.92 1015.11 1015.41 1015.63 1015.73 1015.37 1015.43 1015.23 1015.01 1015.22 1015.24 1015.24 1015.43 1015.60 1014.00 1014.00 1013.62 1012.39 1011.88 1011.53 1011.22 1010.74 1010.67 1010.24 1009.36
998.92 1000.39 1002.10 1003.57 1004.95 1005.90 1006.70 1007.52 1008.26 1009.72 1011.00 1011.96 1012.45 1013.25 1013.65 1014.44 1014.89 1014.67 1014.80 1015.21 1015.49 1015.79 1015.95 1015.99 1015.67 1015.55 1015.49 1015.19 1014.79 1014.94 1014.82 1015.22 1015.58 1014.50 1014.31 1012.90 1011.05 1010.53 1010.35 1010.52 1009.92 1009.87 1009.69 1009.06
999.82 1001.95 1003.00 1004.33 1005.70 1006.85 1007.64 1008.36 1008.84 1010.39 1011.17 1011.95 1012.48 1013.25 1014.12 1014.53 1015.09 1015.30 1015.22 1015.37 1015.44 1015.70 1016.25 1016.71 1016.46 1016.14 1015.62 1014.12 1013.63 1013.63 1013.77 1014.66 1014.92 1014.43 1013.50 1012.29 1011.08 1010.35 1010.00 1010.13 1009.44 1009.40 1009.08 1008.95
1000.97 1002.74 1003.89 1005.52 1006.62 1006.99 1007.87 1009.03 1009.42 1010.66 1011.51 1011.82 1012.05 1013.24 1014.18 1014.57 1015.11 1015.73 1015.39 1015.35 1015.83 1016.42 1016.87 1017.30 1016.95 1016.75 1016.10 1014.84 1013.63 1012.98 1013.36 1013.93 1014.73 1014.49 1013.40 1012.66 1010.95 1010.57 1010.31 1010.19 1010.00 1009.85 1009.59 1009.37
1001.95 1003.18 1004.65 1005.99 1006.64 1007.30 1007.93 1009.68 1009.98 1010.79 1011.81 1012.02 1012.19 1012.73 1013.74 1014.22 1014.82 1015.35 1015.50 1015.94 1016.63 1016.58 1017.41 1017.82 1017.55 1017.11 1016.24 1015.64 1014.44 1013.73 1013.78 1014.13 1013.95 1013.93 1013.79 1012.94 1012.34 1011.67 1010.94 1011.05 1010.36 1009.75 1009.82 1009.84
1002.87 1004.03 1005.10 1005.94 1007.08 1007.86 1008.50 1010.38 1010.72 1010.50 1011.67 1012.32 1012.12 1012.23 1012.81 1014.03 1014.62 1015.35 1016.02 1016.75 1017.16 1017.55 1017.74 1017.94 1017.77 1017.71 1016.99 1016.24 1014.90 1014.15 1013.83 1013.91 1014.04 1013.87 1013.72 1013.12 1012.60 1011.66 1012.06 1011.37 1010.37 1009.97 1009.66 1009.50
1004.26 1005.29 1006.19 1006.82 1007.71 1008.32 1008.78 1010.40 1010.80 1010.51 1011.42 1012.72 1012.64 1012.39 1012.30 1012.99 1013.64 1014.93 1015.92 1016.01 1016.54 1017.14 1017.86 1018.24 1018.37 1018.14 1017.51 1016.51 1015.61 1014.65 1014.23 1013.67 1014.17 1014.25 1012.96 1012.29 1011.91 1011.80 1011.44 1010.86 1010.43 1009.76 1009.25 1008.64
1005.39 1006.33 1007.11 1007.56 1008.11 1008.58 1009.05 1010.50 1011.10 1011.46 1012.64 1013.32 1013.06 1012.81 1013.09 1013.18 1013.60 1014.07 1015.25 1016.29 1016.21 1016.82 1016.71 1017.75 1018.16 1018.11 1017.18 1016.66 1015.68 1014.93 1013.90 1013.76 1013.96 1013.63 1012.19 1011.81 1011.39 1011.01 1010.31 1010.01 1009.73 1009.20 1008.43 1008.26
1006.72 1007.51 1007.62 1008.05 1008.56 1008.81 1009.13 1010.87 1011.69 1011.72 1013.22 1014.28 1013.92 1012.97 1013.31 1013.02 1013.45 1014.18 1014.68 1015.39 1016.06 1016.54 1017.05 1017.72 1017.91 1017.75 1016.58 1015.82 1015.09 1014.40 1013.91 1013.41 1013.13 1012.41 1011.69 1011.26 1010.48 1009.98 1009.72 1009.16 1008.86 1008.70 1008.16 1007.84
1007.32 1007.48 1007.86 1008.46 1008.91 1009.52 1010.49 1011.53 1012.23 1012.11 1013.38 1014.41 1014.32 1013.65 1013.38 1013.41 1013.77 1014.29 1014.74 1015.41 1016.26 1017.13 1017.80 1018.04 1018.01 1017.16 1016.67 1015.31 1014.72 1013.34 1013.49 1012.94 1012.80 1011.18 1011.15 1010.88 1010.11 1009.68 1009.36 1008.84 1008.29 1008.00 1007.63 1007.05
1007.81 1008.36 1008.86 1009.39 1009.98 1010.57 1011.19 1012.62 1012.98 1012.88 1012.80 1014.23 1015.10 1014.93 1014.28 1013.67 1013.75 1014.32 1014.91 1015.29 1016.12 1016.78 1017.33 1017.39 1016.84 1016.24 1016.19 1014.96 1013.38 1012.40 1011.95 1011.57 1010.98 1010.40 1010.13 1009.93 1009.65 1009.25 1008.80 1008.30 1007.44 1006.86 1006.48 1006.08
1008.78 1009.33 1010.06 1010.53 1010.82 1011.34 1012.39 1012.96 1013.09 1012.92 1013.35 1015.05 1015.83 1015.67 1014.56 1014.13 1014.13 1014.49 1014.80 1015.16 1015.66 1016.16 1016.72 1016.64 1016.21 1015.64 1015.31 1014.41 1012.85 1009.74 1011.28 1010.91 1010.37 1009.90 1009.68 1009.50 1008.98 1008.52 1007.81 1007.45 1006.81 1006.21 1005.41 1005.24
1009.72 1010.22 1010.60 1011.09 1011.43 1011.99 1012.76 1013.24 1013.07 1013.29 1014.39 1015.36 1016.54 1016.46 1015.81 1014.52 1014.80 1015.06 1015.02 1015.33 1015.71 1015.83 1015.73 1015.62 1015.17 1014.81 1014.45 1012.77 1010.10 1009.98 1009.72 1009.48 1009.19 1009.00 1008.90 1008.86 1008.30 1007.62 1007.42 1007.06 1006.70 1006.18 1005.48 1005.25
1010.38 1010.89 1011.29 1011.70 1012.52 1013.55 1014.02 1013.57 1013.53 1013.94 1015.15 1016.41 1017.07 1016.92 1016.41 1015.27 1015.56 1015.58 1015.60 1015.58 1016.06 1015.45 1015.45 1014.84 1014.47 1013.75 1012.44 1009.79 1009.52 1009.38 1009.19 1009.01 1008.56 1008.35 1008.28 1008.11 1007.91 1007.49 1007.44 1007.26 1007.08 1007.05 1006.26 1005.90
1010.98 1011.46 1012.42 1013.71 1014.21 1013.88 1013.98 1014.28 1014.74 1015.10 1016.14 1016.79 1017.19 1017.17 1016.87 1016.36 1016.44 1016.26 1016.53 1016.55 1016.31 1015.81 1014.55 1013.90 1013.30 1011.82 1010.03 1009.65 1009.21 1008.95 1008.88 1008.62 1008.15 1008.21 1008.17 1008.21 1008.20 1008.21 1008.18 1008.00 1007.91 1007.71 1007.25 1006.85
1012.17 1013.28 1014.41 1014.68 1014.17 1014.57 1015.48 1016.54 1016.82 1017.08 1017.16 1017.03 1016.90 1016.93 1016.83 1016.38 1016.77 1016.70 1016.59 1016.25 1016.02 1015.55 1013.99 1013.47 1012.38 1011.20 1009.97 1009.56 1009.45 1009.47 1009.37 1009.15 1009.10 1009.00 1008.93 1008.89 1008.86 1008.82 1008.80 1008.54 1008.31 1008.11 1007.90 1007.61
1012.85 1013.36 1014.30 1014.87 1015.53 1016.64 1017.21 1017.65 1017.51 1017.25 1016.97 1016.63 1016.59 1016.48 1016.45 1016.20 1016.25 1016.53 1016.10 1016.09 1015.86 1014.74 1013.56 1013.16 1011.70 1010.83 1010.05 1009.92 1009.89 1010.12 1010.14 1010.15 1010.17 1010.05 1009.83 1009.73 1009.66 1009.55 1009.37 1009.09 1008.81 1008.56 1008.39 1008.15
1013.37 1014.30 1015.71 1016.53 1017.48 1017.91 1017.97 1017.80 1017.21 1016.94 1016.47 1016.37 1016.29 1016.20 1015.99 1015.77 1015.68 1015.50 1015.43 1015.42 1015.04 1014.07 1013.42 1012.23 1011.10 1010.91 1010.80 1010.61 1010.42 1010.41 1010.57 1010.66 1010.71 1010.55 1010.45 1010.33 1010.11 1010.04 1009.95 1009.61 1009.31 1009.05 1008.69 1008.35
1014.74 1015.95 1017.08 1017.68 1018.00 1017.85 1017.40 1016.87 1016.41 1015.89 1015.76 1015.79 1015.70 1015.49 1015.46 1015.15 1015.16 1014.50 1014.42 1013.79 1013.62 1013.61 1012.77 1011.48 1011.16 1011.18 1011.13 1011.03 1010.94 1010.76 1010.64 1010.57 1010.54 1010.59 1010.72 1010.92 1010.90 1010.63 1010.37 1010.13 1009.79 1009.48 1009.20 1008.89
1015.58 1016.25 1017.32 1017.72 1017.29 1017.10 1016.73 1016.32 1015.99 1015.14 1014.72 1014.82 1014.45 1014.35 1014.56 1014.53 1014.45 1013.69 1013.38 1013.34 1012.85 1012.18 1011.77 1011.58 1011.89 1011.86 1011.71 1011.33 1011.19 1010.97 1010.59 1010.39 1010.38 1010.38 1010.55 1010.77 1010.78 1010.76 1010.68 1010.46 1010.20 1009.98 1009.82 1009.71
1015.61 1016.30 1016.95 1017.31 1017.59 1017.32 1016.89 1016.43 1015.95 1014.84 1014.57 1014.23 1014.03 1013.99 1013.84 1013.86 1013.70 1013.45 1012.88 1012.70 1012.53 1012.55 1012.48 1012.43 1012.35 1012.24 1012.01 1011.74 1011.49 1011.09 1010.66 1010.20 1010.09 1010.18 1010.36 1010.44 1010.67 1010.77 1010.77 1010.72 1010.56 1010.41 1010.36 1010.42
1015.80 1016.30 1016.34 1016.79 1017.16 1017.13 1016.58 1015.85 1015.18 1014.39 1014.39 1014.20 1013.91 1013.58 1012.95 1013.08 1012.98 1012.79 1012.41 1012.90 1013.21 1013.17 1012.96 1012.95 1012.94 1012.59 1011.98 1011.68 1011.41 1010.94 1010.48 1010.29 1010.28 1010.24 1010.30 1010.34 1010.41 1010.60 1010.83 1010.95 1010.96 1010.86 1010.95 1011.01
Thickness
5598 5593 5595 5587 5580 5577 5566 5558 5552 5554 5551 5530 5525 5533 5540 5563 5559 5555 5556 5555 5558 5559 5558 5554 5555 5556 5558 5559 5554 5543 5544 5538 5536 5555 5564 5563 5558 5551 5540 5515 5529 5509 5502 5503
5585 5585 5581 5579 5573 5575 5560 5548 5541 5535 5545 5529 5520 5521 5539 5541 5541 5543 5541 5540 5546 5547 5541 5536 5543 5543 5549 5543 5536 5529 5530 5513 5507 5544 5542 5540 5538 5536 5526 5510 5501 5497 5465 5479
5575 5575 5573 5569 5566 5569 5570 5538 5516 5519 5519 5526 5523 5523 5524 5511 5528 5526 5526 5529 5528 5521 5523 5527 5527 5530 5531 5529 5525 5524 5518 5504 5499 5502 5516 5511 5516 5525 5514 5495 5477 5484 5480 5479
5567 5567 5563 5563 5556 5556 5564 5534 5518 5527 5520 5520 5523 5525 5506 5501 5496 5506 5513 5506 5513 5510 5505 5508 5511 5516 5515 5516 5515 5511 5503 5501 5493 5508 5507 5506 5507 5513 5491 5483 5491 5470 5484 5482
5568 5561 5558 5550 5540 5545 5541 5524 5524 5517 5519 5517 5509 5502 5497 5495 5486 5487 5497 5497 5503 5497 5489 5495 5492 5496 5493 5494 5500 5492 5487 5485 5476 5489 5488 5489 5488 5497 5474 5476 5476 5474 5475 5475
5555 5550 5546 5535 5529 5532 5522 5514 5516 5519 5497 5494 5490 5491 5490 5487 5479 5482 5488 5487 5483 5480 5482 5478 5481 5480 5480 5483 5480 5473 5470 5460 5448 5463 5467 5461 5456 5472 5473 5477 5485 5478 5467 5481
5541 5537 5527 5519 5513 5511 5510 5507 5509 5497 5486 5480 5477 5480 5479 5473 5473 5472 5470 5468 5464 5467 5462 5461 5463 5462 5463 5463 5467 5463 5458 5450 5441 5444 5446 5441 5480 5484 5483 5467 5478 5474 5472 5478
5520 5502 5500 5498 5492 5487 5484 5484 5485 5472 5467 5467 5465 5469 5463 5456 5452 5451 5452 5453 5455 5449 5445 5438 5439 5439 5448 5461 5464 5461 5456 5444 5436 5435 5439 5448 5467 5477 5471 5460 5471 5468 5468 5466
5495 5487 5483 5472 5468 5470 5469 5465 5466 5460 5455 5452 5463 5451 5446 5437 5433 5433 5438 5442 5434 5430 5425 5422 5426 5432 5438 5445 5454 5462 5451 5439 5426 5420 5424 5422 5466 5464 5458 5456 5442 5448 5451 5452
5464 5462 5458 5454 5457 5459 5459 5448 5449 5446 5438 5441 5447 5441 5435 5433 5426 5422 5423 5426 5421 5420 5414 5405 5408 5414 5428 5419 5431 5439 5422 5412 5415 5418 5413 5408 5428 5430 5441 5428 5445 5439 5442 5440
5453 5450 5447 5445 5442 5441 5441 5432 5433 5438 5429 5429 5436 5439 5431 5420 5413 5406 5410 5401 5398 5394 5385 5390 5388 5389 5394 5393 5409 5414 5411 5394 5397 5407 5400 5404 5411 5425 5416 5420 5425 5433 5436 5439
5434 5432 5430 5431 5430 5431 5431 5423 5425 5430 5426 5421 5420 5424 5425 5421 5417 5403 5396 5400 5392 5389 5369 5364 5359 5373 5362 5369 5373 5392 5386 5400 5387 5385 5386 5407 5409 5405 5409 5414 5419 5430 5430 5438
5418 5418 5417 5418 5420 5420 5421 5413 5414 5414 5406 5402 5407 5410 5412 5411 5408 5405 5390 5377 5385 5378 5376 5363 5363 5356 5359 5350 5361 5373 5387 5386 5374 5376 5399 5403 5404 5410 5415 5417 5420 5426 5433 5436
5403 5402 5406 5408 5410 5413 5415 5405 5403 5405 5394 5378 5389 5400 5400 5403 5400 5393 5387 5380 5372 5366 5357 5340 5330 5334 5353 5351 5362 5363 5365 5377 5376 5379 5393 5397 5403 5409 5413 5419 5417 5422 5428 5432
5395 5400 5402 5402 5403 5403 5399 5395 5391 5394 5386 5371 5376 5382 5389 5388 5385 5379 5374 5365 5354 5341 5327 5317 5329 5333 5334 5351 5349 5361 5357 5364 5358 5371 5383 5381 5394 5399 5403 5408 5414 5417 5422 5428
5387 5386 5386 5387 5386 5385 5385 5369 5377 5380 5381 5363 5350 5362 5369 5374 5371 5364 5357 5350 5340 5332 5322 5319 5329 5336 5326 5326 5338 5359 5362 5364 5368 5371 5378 5381 5385 5392 5399 5404 5415 5420 5423 5426
5375 5373 5371 5371 5373 5373 5364 5360 5367 5370 5368 5348 5337 5341 5353 5358 5356 5346 5342 5338 5334 5330 5323 5318 5328 5329 5332 5327 5345 5379 5361 5364 5365 5369 5371 5373 5380 5383 5395 5401 5410 5415 5424 5426
5364 5363 5363 5362 5362 5361 5356 5356 5358 5357 5348 5341 5321 5325 5327 5343 5336 5333 5330 5332 5327 5325 5326 5324 5328 5332 5329 5343 5372 5369 5368 5367 5369 5371 5371 5372 5382 5389 5391 5395 5399 5404 5413 5416
5353 5352 5352 5352 5347 5339 5338 5344 5344 5341 5330 5306 5309 5309 5302 5321 5319 5321 5322 5320 5305 5323 5316 5324 5332 5334 5341 5368 5365 5368 5369 5369 5374 5376 5376 5378 5382 5386 5387 5389 5390 5388 5397 5400
5342 5342 5331 5313 5324 5330 5330 5322 5316 5311 5304 5304 5307 5298 5299 5307 5299 5295 5291 5300 5310 5315 5324 5329 5336 5346 5366 5367 5370 5371 5366 5368 5372 5370 5372 5369 5371 5369 5369 5372 5371 5373 5377 5382
5326 5314 5306 5314 5318 5315 5301 5286 5285 5284 5294 5293 5298 5294 5292 5298 5280 5281 5287 5283 5296 5309 5323 5319 5323 5347 5361 5361 5361 5357 5358 5359 5358 5359 5360 5360 5362 5361 5359 5362 5364 5363 5365 5369
5315 5316 5312 5308 5297 5286 5284 5278 5293 5289 5300 5296 5295 5296 5297 5299 5294 5290 5281 5290 5288 5309 5318 5323 5336 5349 5352 5354 5352 5348 5344 5343 5344 5345 5347 5348 5349 5348 5347 5349 5350 5351 5350 5351
5312 5304 5289 5284 5287 5273 5274 5263 5293 5281 5294 5292 5290 5292 5298 5299 5299 5301 5292 5293 5299 5303 5316 5330 5350 5343 5340 5341 5343 5343 5337 5336 5335 5336 5337 5337 5338 5337 5336 5338 5339 5338 5341 5342
5293 5282 5275 5263 5264 5279 5289 5297 5296 5300 5302 5302 5299 5301 5301 5298 5300 5308 5311 5317 5315 5304 5295 5346 5341 5336 5335 5334 5335 5335 5338 5335 5334 5333 5331 5327 5325 5326 5327 5328 5328 5330 5332 5333
5285 5281 5264 5277 5286 5286 5287 5292 5296 5308 5308 5306 5307 5307 5306 5304 5307 5314 5320 5313 5318 5331 5338 5338 5326 5324 5325 5327 5329 5332 5334 5333 5331 5331 5327 5323 5322 5322 5321 5321 5321 5322 5321 5321
5287 5287 5279 5279 5277 5275 5273 5279 5291 5306 5305 5310 5310 5305 5313 5307 5307 5312 5314 5331 5325 5323 5321 5315 5313 5314 5314 5316 5318 5320 5323 5328 5328 5326 5323 5321 5318 5315 5315 5312 5311 5313 5313 5309
5294 5279 5281 5276 5277 5282 5282 5289 5298 5309 5311 5300 5313 5315 5327 5319 5325 5330 5329 5314 5309 5304 5306 5303 5301 5304 5309 5311 5312 5313 5315 5316 5313 5316 5315 5314 5310 5306 5306 5304 5302 5302 5300 5298